AirNav   Air Wisconsin Up To $57,000 Bonus
 
 1059 users online  

37CA Billy Joe Airport
Temecula, California, USA

GOING TO TEMECULA?


FAA INFORMATION EFFECTIVE 20 MAY 2021

Location

FAA Identifier: 37CA
Lat/Long: 33-30-25.1020N 117-04-17.1040W
33-30.418367N 117-04.285067W
33.5069728,-117.0714178
(estimated)
Elevation: 1350 ft. / 411.5 m (surveyed)
Variation: 14E (1985)
From city: 4 miles NE of TEMECULA, CA
Time zone: UTC -7 (UTC -8 during Standard Time)
Zip code: 92592

Airport Operations

Airport use: Private use. Permission required prior to landing
Activation date: 07/1981
Control tower: no
ARTCC: LOS ANGELES CENTER
FSS: RIVERSIDE FLIGHT SERVICE STATION
Attendance: UNATNDD
Wind indicator: yes
Segmented circle: no

Airport Communications

WX AWOS-3 at F70 (5 nm NW): 119.025 (951-696-1018)
WX AWOS-3P at L18 (13 nm SW): 118.425 (760-723-6073)
WX AWOS-3PT at HMT (14 nm N): 118.375 (951-925-6886)

Nearby radio navigation aids

VOR radial/distance  VOR name  Freq  Var
HDFr147/(17.1)HOMELAND VOR113.4014E
OCNr032/23.6OCEANSIDE VORTAC115.3015E
JLIr297/32.8JULIAN VORTAC114.0015E
RALr131/(32.9)RIVERSIDE VOR112.4014E
PDZr122/33.7PARADISE VORTAC112.2015E
ELBr093/34.5EL TORO VOR/DME117.2014E
PSPr223/38.7PALM SPRINGS VORTAC115.5013E

Airport Services

Runway Information

Runway 4/22

Dimensions: 2200 x 40 ft. / 671 x 12 m
Surface: asphalt, in good condition
Operational restrictions: LAND RWY 04, TAKEOFF RWY 22.
RUNWAY 4  RUNWAY 22
Traffic pattern: leftleft

Airport Ownership and Management from official FAA records

Ownership: Privately-owned
Owner: AIRSTRIP COMMUNITY ASSOC.
33800 LINDA ROSEA ROAD
TEMECULA, CA 92592
Phone (951) 676-5434
Manager: JOAN DEFAZIO
33800 LINDA ROSEA ROAD
TEMECULA, CA 92592
Phone (951) 676-5434

Additional Remarks

FOR CD CTC LOS ANGELES ARTCC AT 661-575-2079.

Instrument Procedures

There are no published instrument procedures at 37CA.

Some nearby airports with instrument procedures:

F70 - French Valley Airport (5 nm NW)
L18 - Fallbrook Community Airpark (13 nm SW)
KHMT - Hemet-Ryan Airport (14 nm N)
KNFG - Camp Pendleton MCAS (Munn Field) Airport (19 nm SW)
KOKB - Bob Maxwell Memorial Airfield (22 nm SW)
 
Loc | Ops | Rwys | IFR | FBO | Links
Com | Nav | Svcs | Stats | Notes

San Bernardino International Airport Authority
 
Area around 37CA (Billy Joe Airport)
 
Road maps at: MapQuest Bing Google
 
Aerial photo
No photo
 
Sectional chart

 
Airport distance calculator
Flying to Billy Joe Airport? Find the distance to fly.

From to 37CA

Sunrise and sunset
Times for 13-Jun-2021
 Local
(UTC-7)
 Zulu
(UTC)
Morning civil twilight05:1012:10
Sunrise05:3912:39
Sunset19:5802:58
Evening civil twilight20:2703:27

Current date and time
Zulu (UTC)  13-Jun-2021 19:36:23
Local (UTC-7)  13-Jun-2021 12:36:23
 
METAR
KF70 
5nm NW 
131915Z AUTO 18004KT 10SM CLR 32/M02 A2992 RMK AO1
KL18 
13nm SW 
131915Z AUTO 21007KT 10SM CLR 28/13 A2991 RMK AO2
KHMT 
14nm N 
131915Z AUTO 20006KT 10SM CLR 33/00 A2992 RMK AO2 T03321002
KNFG 
19nm SW 
131855Z AUTO 21009KT 10SM CLR 26/14 A2990 RMK AO2 SLP124 T02560139 $
TAF
KNFG 
19nm SW 
1315/1415 VRB05KT 9999 SKC QNH2989INS TEMPO 1315/1317 OVC011 FM131830 25008KT 9999 SKC QNH2986INS BECMG 1400/1402 VRB05KT 9999 SKC QNH2987INS TEMPO 1409/1415 BKN006 T25/1321Z T15/1412Z
NOTAMs
Click for the latest NOTAMs
NOTAMs are issued by the DoD/FAA and will open in a separate window not controlled by AirNav.

 

 
 

Would you like to see your business listed on this page?

 If your business provides an interesting product or service to pilots, flight crews, aircraft, or users of the Billy Joe Airport, you should consider listing it here.  To start the listing process, click on the button below
 
Add a business
 

Other Pages about Billy Joe Airport

Update a link
 
Copyright © AirNav, LLC. All rights reserved. Privacy Policy  Contact